Year,Month,Day,Hour,Minute,Value (Times are PST for temperature in C)
2015,10,23,00,00,6.70
2015,10,23,00,01,6.60
2015,10,23,00,02,6.60
2015,10,23,00,03,6.60
2015,10,23,00,04,6.60
2015,10,23,00,05,6.60
2015,10,23,00,06,6.60
2015,10,23,00,07,6.60
2015,10,23,00,08,6.60
2015,10,23,00,09,6.60
2015,10,23,00,10,6.60
2015,10,23,00,11,6.60
2015,10,23,00,12,6.60
2015,10,23,00,13,6.50
2015,10,23,00,14,6.50
2015,10,23,00,15,6.50
2015,10,23,00,16,6.50
2015,10,23,00,17,6.50
2015,10,23,00,18,6.40
2015,10,23,00,19,6.40
2015,10,23,00,20,6.40
2015,10,23,00,21,6.40
2015,10,23,00,22,6.40
2015,10,23,00,23,6.40
2015,10,23,00,24,6.40
2015,10,23,00,25,6.30
2015,10,23,00,26,6.30
2015,10,23,00,27,6.30
2015,10,23,00,28,6.30
2015,10,23,00,29,6.30
2015,10,23,00,30,6.30
2015,10,23,00,31,6.20
2015,10,23,00,32,6.20
2015,10,23,00,33,6.20
2015,10,23,00,34,6.20
2015,10,23,00,35,6.20
2015,10,23,00,36,6.20
2015,10,23,00,37,6.20
2015,10,23,00,38,6.10
2015,10,23,00,39,6.20
2015,10,23,00,40,6.10
2015,10,23,00,41,6.10
2015,10,23,00,42,6.10
2015,10,23,00,43,6.10
2015,10,23,00,44,6.10
2015,10,23,00,45,6.10
2015,10,23,00,46,6.10
2015,10,23,00,47,6.10
2015,10,23,00,48,6.10
2015,10,23,00,49,6.00
2015,10,23,00,50,6.00
2015,10,23,00,51,6.00
2015,10,23,00,52,6.00
2015,10,23,00,53,6.00
2015,10,23,00,54,6.00
2015,10,23,00,55,6.00
2015,10,23,00,56,6.00
2015,10,23,00,57,6.00
2015,10,23,00,58,6.00
2015,10,23,00,59,6.00
2015,10,23,01,00,6.00
2015,10,23,01,01,6.00
2015,10,23,01,02,6.00
2015,10,23,01,03,6.00
2015,10,23,01,04,6.00
2015,10,23,01,05,6.00
2015,10,23,01,06,6.00
2015,10,23,01,07,6.00
2015,10,23,01,08,6.00
2015,10,23,01,09,6.00
2015,10,23,01,10,6.00
2015,10,23,01,11,6.00
2015,10,23,01,12,6.00
2015,10,23,01,13,6.10
2015,10,23,01,14,6.10
2015,10,23,01,15,6.10
2015,10,23,01,16,6.10
2015,10,23,01,17,6.10
2015,10,23,01,18,6.10
2015,10,23,01,19,6.10
2015,10,23,01,20,6.10
2015,10,23,01,21,6.00
2015,10,23,01,22,6.00
2015,10,23,01,23,6.00
2015,10,23,01,24,6.00
2015,10,23,01,25,6.00
2015,10,23,01,26,6.00
2015,10,23,01,27,6.00
2015,10,23,01,28,6.00
2015,10,23,01,29,6.00
2015,10,23,01,30,6.00
2015,10,23,01,31,6.00
2015,10,23,01,32,6.00
2015,10,23,01,33,6.00
2015,10,23,01,34,6.00
2015,10,23,01,35,6.00
2015,10,23,01,36,6.00
2015,10,23,01,37,6.00
2015,10,23,01,38,6.00
2015,10,23,01,39,6.00
2015,10,23,01,40,6.00
2015,10,23,01,41,6.00
2015,10,23,01,42,6.00
2015,10,23,01,43,6.00
2015,10,23,01,44,6.00
2015,10,23,01,45,6.00
2015,10,23,01,46,5.90
2015,10,23,01,47,5.90
2015,10,23,01,48,5.90
2015,10,23,01,49,5.90
2015,10,23,01,50,5.90
2015,10,23,01,51,5.90
2015,10,23,01,52,5.90
2015,10,23,01,53,5.90
2015,10,23,01,54,5.90
2015,10,23,01,55,5.90
2015,10,23,01,56,5.90
2015,10,23,01,57,5.90
2015,10,23,01,58,5.90
2015,10,23,01,59,5.90
2015,10,23,02,00,5.90
2015,10,23,02,01,5.90
2015,10,23,02,02,5.90
2015,10,23,02,03,5.90
2015,10,23,02,04,5.90
2015,10,23,02,05,5.80
2015,10,23,02,06,5.80
2015,10,23,02,07,5.90
2015,10,23,02,08,5.90
2015,10,23,02,09,5.90
2015,10,23,02,10,5.90
2015,10,23,02,11,5.90
2015,10,23,02,12,5.80
2015,10,23,02,13,5.80
2015,10,23,02,14,5.80
2015,10,23,02,15,5.80
2015,10,23,02,16,5.80
2015,10,23,02,17,5.80
2015,10,23,02,18,5.80
2015,10,23,02,19,5.80
2015,10,23,02,20,5.80
2015,10,23,02,21,5.80
2015,10,23,02,22,5.80
2015,10,23,02,23,5.80
2015,10,23,02,24,5.80
2015,10,23,02,25,5.80
2015,10,23,02,26,5.80
2015,10,23,02,27,5.80
2015,10,23,02,28,5.80
2015,10,23,02,29,5.80
2015,10,23,02,30,5.80
2015,10,23,02,31,5.80
2015,10,23,02,32,5.80
2015,10,23,02,33,5.80
2015,10,23,02,34,5.80
2015,10,23,02,35,5.80
2015,10,23,02,36,5.80
2015,10,23,02,37,5.80
2015,10,23,02,38,5.80
2015,10,23,02,39,5.80
2015,10,23,02,40,5.80
2015,10,23,02,41,5.80
2015,10,23,02,42,5.80
2015,10,23,02,43,5.80
2015,10,23,02,44,5.80
2015,10,23,02,45,5.80
2015,10,23,02,46,5.90
2015,10,23,02,47,5.90
2015,10,23,02,48,5.90
2015,10,23,02,49,5.90
2015,10,23,02,50,5.90
2015,10,23,02,51,6.00
2015,10,23,02,52,6.00
2015,10,23,02,53,6.00
2015,10,23,02,54,6.00
2015,10,23,02,55,6.00
2015,10,23,02,56,6.10
2015,10,23,02,57,6.10
2015,10,23,02,58,6.10
2015,10,23,02,59,6.10
2015,10,23,03,00,6.10
2015,10,23,03,01,6.10
2015,10,23,03,02,6.20
2015,10,23,03,03,6.20
2015,10,23,03,04,6.20
2015,10,23,03,05,6.20
2015,10,23,03,06,6.20
2015,10,23,03,07,6.20
2015,10,23,03,08,6.20
2015,10,23,03,09,6.20
2015,10,23,03,10,6.20
2015,10,23,03,11,6.20
2015,10,23,03,12,6.20
2015,10,23,03,13,6.20
2015,10,23,03,14,6.20
2015,10,23,03,15,6.10
2015,10,23,03,16,6.10
2015,10,23,03,17,6.10
2015,10,23,03,18,6.10
2015,10,23,03,19,6.10
2015,10,23,03,20,6.10
2015,10,23,03,21,6.10
2015,10,23,03,22,6.10
2015,10,23,03,23,6.10
2015,10,23,03,24,6.00
2015,10,23,03,25,6.00
2015,10,23,03,26,6.00
2015,10,23,03,27,6.00
2015,10,23,03,28,6.00
2015,10,23,03,29,6.00
2015,10,23,03,30,6.00
2015,10,23,03,31,6.00
2015,10,23,03,32,6.00
2015,10,23,03,33,6.00
2015,10,23,03,34,6.00
2015,10,23,03,35,6.00
2015,10,23,03,36,6.00
2015,10,23,03,37,6.00
2015,10,23,03,38,6.00
2015,10,23,03,39,6.00
2015,10,23,03,40,5.90
2015,10,23,03,41,5.90
2015,10,23,03,42,5.90
2015,10,23,03,43,5.90
2015,10,23,03,44,5.90
2015,10,23,03,45,5.90
2015,10,23,03,46,5.90
2015,10,23,03,47,5.90
2015,10,23,03,48,5.90
2015,10,23,03,49,5.90
2015,10,23,03,50,5.90
2015,10,23,03,51,5.90
2015,10,23,03,52,5.90
2015,10,23,03,53,5.90
2015,10,23,03,54,5.90
2015,10,23,03,55,5.90
2015,10,23,03,56,5.90
2015,10,23,03,57,5.90
2015,10,23,03,58,5.90
2015,10,23,03,59,5.90
2015,10,23,04,00,5.90
2015,10,23,04,01,5.90
2015,10,23,04,02,6.00
2015,10,23,04,03,6.00
2015,10,23,04,04,6.00
2015,10,23,04,05,6.00
2015,10,23,04,06,6.00
2015,10,23,04,07,6.00
2015,10,23,04,08,6.00
2015,10,23,04,09,6.00
2015,10,23,04,10,6.00
2015,10,23,04,11,6.00
2015,10,23,04,12,6.00
2015,10,23,04,13,6.00
2015,10,23,04,14,6.00
2015,10,23,04,15,6.00
2015,10,23,04,16,6.00
2015,10,23,04,17,6.00
2015,10,23,04,18,6.00
2015,10,23,04,19,6.00
2015,10,23,04,20,6.00
2015,10,23,04,21,6.00
2015,10,23,04,22,6.00
2015,10,23,04,23,5.90
2015,10,23,04,24,5.90
2015,10,23,04,25,5.90
2015,10,23,04,26,5.90
2015,10,23,04,27,5.90
2015,10,23,04,28,5.90
2015,10,23,04,29,5.90
2015,10,23,04,30,5.90
2015,10,23,04,31,5.90
2015,10,23,04,32,5.90
2015,10,23,04,33,5.90
2015,10,23,04,34,5.90
2015,10,23,04,35,5.90
2015,10,23,04,36,5.90
2015,10,23,04,37,5.90
2015,10,23,04,38,5.90
2015,10,23,04,39,5.90
2015,10,23,04,40,5.90
2015,10,23,04,41,5.90
2015,10,23,04,42,6.00
2015,10,23,04,43,6.00
2015,10,23,04,44,6.00
2015,10,23,04,45,6.00
2015,10,23,04,46,6.00
2015,10,23,04,47,6.00
2015,10,23,04,48,6.00
2015,10,23,04,49,6.10
2015,10,23,04,50,6.10
2015,10,23,04,51,6.10
2015,10,23,04,52,6.10
2015,10,23,04,53,6.10
2015,10,23,04,54,6.10
2015,10,23,04,55,6.10
2015,10,23,04,56,6.10
2015,10,23,04,57,6.10
2015,10,23,04,58,6.10
2015,10,23,04,59,6.10
2015,10,23,05,00,6.10
2015,10,23,05,01,6.10
2015,10,23,05,02,6.10
2015,10,23,05,03,6.10
2015,10,23,05,04,6.10
2015,10,23,05,05,6.10
2015,10,23,05,06,6.10
2015,10,23,05,07,6.10
2015,10,23,05,08,6.10
2015,10,23,05,09,6.10
2015,10,23,05,10,6.10
2015,10,23,05,11,6.10
2015,10,23,05,12,6.10
2015,10,23,05,13,6.10
2015,10,23,05,14,6.10
2015,10,23,05,15,6.10
2015,10,23,05,16,6.10
2015,10,23,05,17,6.10
2015,10,23,05,18,6.10
2015,10,23,05,19,6.10
2015,10,23,05,20,6.10
2015,10,23,05,21,6.10
2015,10,23,05,22,6.10
2015,10,23,05,23,6.10
2015,10,23,05,24,6.10
2015,10,23,05,25,6.00
2015,10,23,05,26,6.00
2015,10,23,05,27,6.10
2015,10,23,05,28,6.10
2015,10,23,05,29,6.10
2015,10,23,05,30,6.10
2015,10,23,05,31,6.00
2015,10,23,05,32,6.00
2015,10,23,05,33,6.00
2015,10,23,05,34,6.00
2015,10,23,05,35,6.10
2015,10,23,05,36,6.10
2015,10,23,05,37,6.10
2015,10,23,05,38,6.10
2015,10,23,05,39,6.10
2015,10,23,05,40,6.10
2015,10,23,05,41,6.10
2015,10,23,05,42,6.00
2015,10,23,05,43,6.10
2015,10,23,05,44,6.10
2015,10,23,05,45,6.10
2015,10,23,05,46,6.10
2015,10,23,05,47,6.00
2015,10,23,05,48,6.00
2015,10,23,05,49,6.00
2015,10,23,05,50,6.00
2015,10,23,05,51,6.00
2015,10,23,05,52,6.10
2015,10,23,05,53,6.10
2015,10,23,05,54,6.00
2015,10,23,05,55,6.00
2015,10,23,05,56,6.00
2015,10,23,05,57,6.00
2015,10,23,05,58,6.00
2015,10,23,05,59,6.00
2015,10,23,06,00,6.00
2015,10,23,06,01,6.00
2015,10,23,06,02,6.00
2015,10,23,06,03,6.00
2015,10,23,06,04,6.00
2015,10,23,06,05,6.00
2015,10,23,06,06,6.10
2015,10,23,06,07,6.10
2015,10,23,06,08,6.10
2015,10,23,06,09,6.10
2015,10,23,06,10,6.10
2015,10,23,06,11,6.10
2015,10,23,06,12,6.10
2015,10,23,06,13,6.10
2015,10,23,06,14,6.10
2015,10,23,06,15,6.10
2015,10,23,06,16,6.10
2015,10,23,06,17,6.10
2015,10,23,06,18,6.10
2015,10,23,06,19,6.10
2015,10,23,06,20,6.20
2015,10,23,06,21,6.20
2015,10,23,06,22,6.20
2015,10,23,06,23,6.20
2015,10,23,06,24,6.20
2015,10,23,06,25,6.30
2015,10,23,06,26,6.30
2015,10,23,06,27,6.30
2015,10,23,06,28,6.30
2015,10,23,06,29,6.30
2015,10,23,06,30,6.30
2015,10,23,06,31,6.40
2015,10,23,06,32,6.40
2015,10,23,06,33,6.40
2015,10,23,06,34,6.40
2015,10,23,06,35,6.40
2015,10,23,06,36,6.50
2015,10,23,06,37,6.50
2015,10,23,06,38,6.50
2015,10,23,06,39,6.50
2015,10,23,06,40,6.60
2015,10,23,06,41,6.60
2015,10,23,06,42,6.60
2015,10,23,06,43,6.60
2015,10,23,06,44,6.60
2015,10,23,06,45,6.60
2015,10,23,06,46,6.60
2015,10,23,06,47,6.60
2015,10,23,06,48,6.60
2015,10,23,06,49,6.60
2015,10,23,06,50,6.70
2015,10,23,06,51,6.70
2015,10,23,06,52,6.70
2015,10,23,06,53,6.70
2015,10,23,06,54,6.70
2015,10,23,06,55,6.70
2015,10,23,06,56,6.70
2015,10,23,06,57,6.70
2015,10,23,06,58,6.70
2015,10,23,06,59,6.70
2015,10,23,07,00,6.70
2015,10,23,07,01,6.70
2015,10,23,07,02,6.70
2015,10,23,07,03,6.70
2015,10,23,07,04,6.70
2015,10,23,07,05,6.70
2015,10,23,07,06,6.80
2015,10,23,07,07,6.80
2015,10,23,07,08,6.80
2015,10,23,07,09,6.80
2015,10,23,07,10,6.80
2015,10,23,07,11,6.80
2015,10,23,07,12,6.80
2015,10,23,07,13,6.80
2015,10,23,07,14,6.80
2015,10,23,07,15,6.80
2015,10,23,07,16,6.80
2015,10,23,07,17,6.80
2015,10,23,07,18,6.80
2015,10,23,07,19,6.80
2015,10,23,07,20,6.80
2015,10,23,07,21,6.80
2015,10,23,07,22,6.80
2015,10,23,07,23,6.80
2015,10,23,07,24,6.80
2015,10,23,07,25,6.80
2015,10,23,07,26,6.80
2015,10,23,07,27,6.80
2015,10,23,07,28,6.80
2015,10,23,07,29,6.80
2015,10,23,07,30,6.80
2015,10,23,07,31,6.90
2015,10,23,07,32,6.90
2015,10,23,07,33,6.90
2015,10,23,07,34,6.90
2015,10,23,07,35,6.90
2015,10,23,07,36,6.90
2015,10,23,07,37,6.90
2015,10,23,07,38,7.00
2015,10,23,07,39,7.00
2015,10,23,07,40,7.10
2015,10,23,07,41,7.10
2015,10,23,07,42,7.10
2015,10,23,07,43,7.20
2015,10,23,07,44,7.20
2015,10,23,07,45,7.20
2015,10,23,07,46,7.30
2015,10,23,07,47,7.30
2015,10,23,07,48,7.30
2015,10,23,07,49,7.30
2015,10,23,07,50,7.40
2015,10,23,07,51,7.40
2015,10,23,07,52,7.40
2015,10,23,07,53,7.40
2015,10,23,07,54,7.50
2015,10,23,07,55,7.50
2015,10,23,07,56,7.50
2015,10,23,07,57,7.50
2015,10,23,07,58,7.50
2015,10,23,07,59,7.60
2015,10,23,08,00,7.60
2015,10,23,08,01,7.60
2015,10,23,08,02,7.60
2015,10,23,08,03,7.60
2015,10,23,08,04,7.60
2015,10,23,08,05,7.60
2015,10,23,08,06,7.60
2015,10,23,08,07,7.60
2015,10,23,08,08,7.60
2015,10,23,08,09,7.60
2015,10,23,08,10,7.60
2015,10,23,08,11,7.60
2015,10,23,08,12,7.60
2015,10,23,08,13,7.60
2015,10,23,08,14,7.60
2015,10,23,08,15,7.70
2015,10,23,08,16,7.70
2015,10,23,08,17,7.70
2015,10,23,08,18,7.70
2015,10,23,08,19,7.70
2015,10,23,08,20,7.70
2015,10,23,08,21,7.70
2015,10,23,08,22,7.70
2015,10,23,08,23,7.70
2015,10,23,08,24,7.70
2015,10,23,08,25,7.70
2015,10,23,08,26,7.70
2015,10,23,08,27,7.70
2015,10,23,08,28,7.70
2015,10,23,08,29,7.70
2015,10,23,08,30,7.70
2015,10,23,08,31,7.70
2015,10,23,08,32,7.70
2015,10,23,08,33,7.70
2015,10,23,08,34,7.70
2015,10,23,08,35,7.70
2015,10,23,08,36,7.70
2015,10,23,08,37,7.70
2015,10,23,08,38,7.70
2015,10,23,08,39,7.70
2015,10,23,08,40,7.70
2015,10,23,08,41,7.70
2015,10,23,08,42,7.80
2015,10,23,08,43,7.80
2015,10,23,08,44,7.80
2015,10,23,08,45,7.80
2015,10,23,08,46,7.80
2015,10,23,08,47,7.80
2015,10,23,08,48,7.80
2015,10,23,08,49,7.80
2015,10,23,08,50,7.90
2015,10,23,08,51,7.90
2015,10,23,08,52,7.90
2015,10,23,08,53,7.90
2015,10,23,08,54,7.90
2015,10,23,08,55,7.90
2015,10,23,08,56,7.90
2015,10,23,08,57,8.00
2015,10,23,08,58,8.00
2015,10,23,08,59,8.00
2015,10,23,09,00,8.00
2015,10,23,09,01,8.10
2015,10,23,09,02,8.10
2015,10,23,09,03,8.10
2015,10,23,09,04,8.10
2015,10,23,09,05,8.10
2015,10,23,09,06,8.10
2015,10,23,09,07,8.10
2015,10,23,09,08,8.20
2015,10,23,09,09,8.20
2015,10,23,09,10,8.20
2015,10,23,09,11,8.20
2015,10,23,09,12,8.20
2015,10,23,09,13,8.20
2015,10,23,09,14,8.30
2015,10,23,09,15,8.30
2015,10,23,09,16,8.30
2015,10,23,09,17,8.30
2015,10,23,09,18,8.30
2015,10,23,09,19,8.30
2015,10,23,09,20,8.30
2015,10,23,09,21,8.30
2015,10,23,09,22,8.40
2015,10,23,09,23,8.40
2015,10,23,09,24,8.40
2015,10,23,09,25,8.40
2015,10,23,09,26,8.40
2015,10,23,09,27,8.50
2015,10,23,09,28,8.50
2015,10,23,09,29,8.50
2015,10,23,09,30,8.60
2015,10,23,09,31,8.60
2015,10,23,09,32,8.60
2015,10,23,09,33,8.60
2015,10,23,09,34,8.70
2015,10,23,09,35,8.70
2015,10,23,09,36,8.70
2015,10,23,09,37,8.70
2015,10,23,09,38,8.80
2015,10,23,09,39,8.80
2015,10,23,09,40,8.80
2015,10,23,09,41,8.90
2015,10,23,09,42,8.90
2015,10,23,09,43,8.90
2015,10,23,09,44,8.90
2015,10,23,09,45,9.00
2015,10,23,09,46,9.00
2015,10,23,09,47,9.10
2015,10,23,09,48,9.10
2015,10,23,09,49,9.10
2015,10,23,09,50,9.20
2015,10,23,09,51,9.20
2015,10,23,09,52,9.20
2015,10,23,09,53,9.30
2015,10,23,09,54,9.30
2015,10,23,09,55,9.30
2015,10,23,09,56,9.30
2015,10,23,09,57,9.40
2015,10,23,09,58,9.40
2015,10,23,09,59,9.40
2015,10,23,10,00,9.50
2015,10,23,10,01,9.50
2015,10,23,10,02,9.50
2015,10,23,10,03,9.60
2015,10,23,10,04,9.60
2015,10,23,10,05,9.60
2015,10,23,10,06,9.60
2015,10,23,10,07,9.60
2015,10,23,10,08,9.70
2015,10,23,10,09,9.70
2015,10,23,10,10,9.70
2015,10,23,10,11,9.70
2015,10,23,10,12,9.70
2015,10,23,10,13,9.70
2015,10,23,10,14,9.70
2015,10,23,10,15,9.80
2015,10,23,10,16,9.80
2015,10,23,10,17,9.80
2015,10,23,10,18,9.80
2015,10,23,10,19,9.80
2015,10,23,10,20,9.80
2015,10,23,10,21,9.90
2015,10,23,10,22,9.90
2015,10,23,10,23,9.90
2015,10,23,10,24,10.00
2015,10,23,10,25,10.00
2015,10,23,10,26,10.10
2015,10,23,10,27,10.10
2015,10,23,10,28,10.10
2015,10,23,10,29,10.10
2015,10,23,10,30,10.10
2015,10,23,10,31,10.20
2015,10,23,10,32,10.20
2015,10,23,10,33,10.30
2015,10,23,10,34,10.30
2015,10,23,10,35,10.30
2015,10,23,10,36,10.40
2015,10,23,10,37,10.40
2015,10,23,10,38,10.40
2015,10,23,10,39,10.40
2015,10,23,10,40,10.40
2015,10,23,10,41,10.40
2015,10,23,10,42,10.50
2015,10,23,10,43,10.50
2015,10,23,10,44,10.50
2015,10,23,10,45,10.50
2015,10,23,10,46,10.50
2015,10,23,10,47,10.50
2015,10,23,10,48,10.50
2015,10,23,10,49,10.50
2015,10,23,10,50,10.60
2015,10,23,10,51,10.60
2015,10,23,10,52,10.60
2015,10,23,10,53,10.60
2015,10,23,10,54,10.60
2015,10,23,10,55,10.60
2015,10,23,10,56,10.60
2015,10,23,10,57,10.70
2015,10,23,10,58,10.70
2015,10,23,10,59,10.70
2015,10,23,11,00,10.70
2015,10,23,11,01,10.70
2015,10,23,11,02,10.70
2015,10,23,11,03,10.70
2015,10,23,11,04,10.80
2015,10,23,11,05,10.80
2015,10,23,11,06,10.80
2015,10,23,11,07,10.80
2015,10,23,11,08,10.80
2015,10,23,11,09,10.90
2015,10,23,11,10,10.90
2015,10,23,11,11,10.90
2015,10,23,11,12,10.90
2015,10,23,11,13,10.90
2015,10,23,11,14,10.90
2015,10,23,11,15,11.00
2015,10,23,11,16,11.00
2015,10,23,11,17,11.00
2015,10,23,11,18,11.00
2015,10,23,11,19,11.00
2015,10,23,11,20,11.00
2015,10,23,11,21,11.10
2015,10,23,11,22,11.10
2015,10,23,11,23,11.10
2015,10,23,11,24,11.10
2015,10,23,11,25,11.20
2015,10,23,11,26,11.20
2015,10,23,11,27,11.20
2015,10,23,11,28,11.20
2015,10,23,11,29,11.30
2015,10,23,11,30,11.30
2015,10,23,11,31,11.30
2015,10,23,11,32,11.30
2015,10,23,11,33,11.30
2015,10,23,11,34,11.40
2015,10,23,11,35,11.40
2015,10,23,11,36,11.40
2015,10,23,11,37,11.50
2015,10,23,11,38,11.50
2015,10,23,11,39,11.60
2015,10,23,11,40,11.60
2015,10,23,11,41,11.70
2015,10,23,11,42,11.70
2015,10,23,11,43,11.70
2015,10,23,11,44,11.80
2015,10,23,11,45,11.80
2015,10,23,11,46,11.90
2015,10,23,11,47,11.90
2015,10,23,11,48,11.90
2015,10,23,11,49,11.90
2015,10,23,11,50,12.00
2015,10,23,11,51,12.00
2015,10,23,11,52,12.10
2015,10,23,11,53,12.10
2015,10,23,11,54,12.10
2015,10,23,11,55,12.20
2015,10,23,11,56,12.20
2015,10,23,11,57,12.20
2015,10,23,11,58,12.30
2015,10,23,11,59,12.30
2015,10,23,12,00,12.30
2015,10,23,12,01,12.40
2015,10,23,12,02,12.40
2015,10,23,12,03,12.40
2015,10,23,12,04,12.30
2015,10,23,12,05,12.30
2015,10,23,12,06,12.30
2015,10,23,12,07,12.30
2015,10,23,12,08,12.30
2015,10,23,12,09,12.30
2015,10,23,12,10,12.30
2015,10,23,12,11,12.30
2015,10,23,12,12,12.30
2015,10,23,12,13,12.30
2015,10,23,12,14,12.30
2015,10,23,12,15,12.30
2015,10,23,12,16,12.30
2015,10,23,12,17,12.40
2015,10,23,12,18,12.40
2015,10,23,12,19,12.40
2015,10,23,12,20,12.40
2015,10,23,12,21,12.40
2015,10,23,12,22,12.50
2015,10,23,12,23,12.50
2015,10,23,12,24,12.50
2015,10,23,12,25,12.60
2015,10,23,12,26,12.60
2015,10,23,12,27,12.70
2015,10,23,12,28,12.70
2015,10,23,12,29,12.70
2015,10,23,12,30,12.80
2015,10,23,12,31,12.80
2015,10,23,12,32,12.80
2015,10,23,12,33,12.80
2015,10,23,12,34,12.80
2015,10,23,12,35,12.90
2015,10,23,12,36,12.90
2015,10,23,12,37,12.90
2015,10,23,12,38,12.90
2015,10,23,12,39,12.90
2015,10,23,12,40,12.90
2015,10,23,12,41,12.90
2015,10,23,12,42,12.90
2015,10,23,12,43,12.90
2015,10,23,12,44,13.00
2015,10,23,12,45,13.00
2015,10,23,12,46,13.10
2015,10,23,12,47,13.10
2015,10,23,12,48,13.10
2015,10,23,12,49,13.20
2015,10,23,12,50,13.20
2015,10,23,12,51,13.20
2015,10,23,12,52,13.30
2015,10,23,12,53,13.30
2015,10,23,12,54,13.30
2015,10,23,12,55,13.30
2015,10,23,12,56,13.40
2015,10,23,12,57,13.40
2015,10,23,12,58,13.50
2015,10,23,12,59,13.50
2015,10,23,13,00,13.50
2015,10,23,13,01,13.60
2015,10,23,13,02,13.60
2015,10,23,13,03,13.60
2015,10,23,13,04,13.60
2015,10,23,13,05,13.60
2015,10,23,13,06,13.60
2015,10,23,13,07,13.70
2015,10,23,13,08,13.70
2015,10,23,13,09,13.70
2015,10,23,13,10,13.70
2015,10,23,13,11,13.70
2015,10,23,13,12,13.70
2015,10,23,13,13,13.70
2015,10,23,13,14,13.80
2015,10,23,13,15,13.80
2015,10,23,13,16,13.80
2015,10,23,13,17,13.80
2015,10,23,13,18,13.90
2015,10,23,13,19,13.90
2015,10,23,13,20,14.00
2015,10,23,13,21,14.00
2015,10,23,13,22,14.10
2015,10,23,13,23,14.20
2015,10,23,13,24,14.20
2015,10,23,13,25,14.20
2015,10,23,13,26,14.20
2015,10,23,13,27,14.20
2015,10,23,13,28,14.30
2015,10,23,13,29,14.30
2015,10,23,13,30,14.30
2015,10,23,13,31,14.30
2015,10,23,13,32,14.30
2015,10,23,13,33,14.30
2015,10,23,13,34,14.30
2015,10,23,13,35,14.30
2015,10,23,13,36,14.40
2015,10,23,13,37,14.40
2015,10,23,13,38,14.40
2015,10,23,13,39,14.40
2015,10,23,13,40,14.40
2015,10,23,13,41,14.40
2015,10,23,13,42,14.50
2015,10,23,13,43,14.50
2015,10,23,13,44,14.50
2015,10,23,13,45,14.50
2015,10,23,13,46,14.50
2015,10,23,13,47,14.50
2015,10,23,13,48,14.50
2015,10,23,13,49,14.50
2015,10,23,13,50,14.50
2015,10,23,13,51,14.40
2015,10,23,13,52,14.30
2015,10,23,13,53,14.20
2015,10,23,13,54,14.10
2015,10,23,13,55,14.10
2015,10,23,13,56,14.00
2015,10,23,13,57,13.90
2015,10,23,13,58,13.80
2015,10,23,13,59,13.70
2015,10,23,14,00,13.70
2015,10,23,14,01,13.60
2015,10,23,14,02,13.60
2015,10,23,14,03,13.50
2015,10,23,14,04,13.50
2015,10,23,14,05,13.40
2015,10,23,14,06,13.40
2015,10,23,14,07,13.40
2015,10,23,14,08,13.40
2015,10,23,14,09,13.40
2015,10,23,14,10,13.40
2015,10,23,14,11,13.30
2015,10,23,14,12,13.30
2015,10,23,14,13,13.20
2015,10,23,14,14,13.20
2015,10,23,14,15,13.20
2015,10,23,14,16,13.10
2015,10,23,14,17,13.10
2015,10,23,14,18,13.20
2015,10,23,14,19,13.20
2015,10,23,14,20,13.20
2015,10,23,14,21,13.20
2015,10,23,14,22,13.20
2015,10,23,14,23,13.30
2015,10,23,14,24,13.30
2015,10,23,14,25,13.30
2015,10,23,14,26,13.20
2015,10,23,14,27,13.20
2015,10,23,14,28,13.20
2015,10,23,14,29,13.20
2015,10,23,14,30,13.20
2015,10,23,14,31,13.20
2015,10,23,14,32,13.20
2015,10,23,14,33,13.20
2015,10,23,14,34,13.20
2015,10,23,14,35,13.20
2015,10,23,14,36,13.30
2015,10,23,14,37,13.30
2015,10,23,14,38,13.30
2015,10,23,14,39,13.30
2015,10,23,14,40,13.30
2015,10,23,14,41,13.30
2015,10,23,14,42,13.30
2015,10,23,14,43,13.30
2015,10,23,14,44,13.40
2015,10,23,14,45,13.40
2015,10,23,14,46,13.50
2015,10,23,14,47,13.50
2015,10,23,14,48,13.60
2015,10,23,14,49,13.60
2015,10,23,14,50,13.60
2015,10,23,14,51,13.60
2015,10,23,14,52,13.60
2015,10,23,14,53,13.60
2015,10,23,14,54,13.60
2015,10,23,14,55,13.60
2015,10,23,14,56,13.70
2015,10,23,14,57,13.70
2015,10,23,14,58,13.70
2015,10,23,14,59,13.70
2015,10,23,15,00,13.70
2015,10,23,15,01,13.70
2015,10,23,15,02,13.70
2015,10,23,15,03,13.60
2015,10,23,15,04,13.60
2015,10,23,15,05,13.60
2015,10,23,15,06,13.60
2015,10,23,15,07,13.60
2015,10,23,15,08,13.50
2015,10,23,15,09,13.50
2015,10,23,15,10,13.60
2015,10,23,15,11,13.60
2015,10,23,15,12,13.60
2015,10,23,15,13,13.60
2015,10,23,15,14,13.60
2015,10,23,15,15,13.70
2015,10,23,15,16,13.70
2015,10,23,15,17,13.70
2015,10,23,15,18,13.70
2015,10,23,15,19,13.80
2015,10,23,15,20,13.80
2015,10,23,15,21,13.80
2015,10,23,15,22,13.80
2015,10,23,15,23,13.90
2015,10,23,15,24,14.00
2015,10,23,15,25,14.00
2015,10,23,15,26,14.10
2015,10,23,15,27,14.10
2015,10,23,15,28,14.10
2015,10,23,15,29,14.10
2015,10,23,15,30,14.20
2015,10,23,15,31,14.20
2015,10,23,15,32,14.20
2015,10,23,15,33,14.20
2015,10,23,15,34,14.20
2015,10,23,15,35,14.20
2015,10,23,15,36,14.30
2015,10,23,15,37,14.30
2015,10,23,15,38,14.30
2015,10,23,15,39,14.30
2015,10,23,15,40,14.30
2015,10,23,15,41,14.40
2015,10,23,15,42,14.40
2015,10,23,15,43,14.40
2015,10,23,15,44,14.40
2015,10,23,15,45,14.40
2015,10,23,15,46,14.40
2015,10,23,15,47,14.40
2015,10,23,15,48,14.40
2015,10,23,15,49,14.40
2015,10,23,15,50,14.50
2015,10,23,15,51,14.50
2015,10,23,15,52,14.50
2015,10,23,15,53,14.60
2015,10,23,15,54,14.60
2015,10,23,15,55,14.60
2015,10,23,15,56,14.60
2015,10,23,15,57,14.60
2015,10,23,15,58,14.60
2015,10,23,15,59,14.60
2015,10,23,16,00,14.60
2015,10,23,16,01,14.60
2015,10,23,16,02,14.60
2015,10,23,16,03,14.60
2015,10,23,16,04,14.60
2015,10,23,16,05,14.60
2015,10,23,16,06,14.60
2015,10,23,16,07,14.70
2015,10,23,16,08,14.70
2015,10,23,16,09,14.70
2015,10,23,16,10,14.70
2015,10,23,16,11,14.70
2015,10,23,16,12,14.70
2015,10,23,16,13,14.70
2015,10,23,16,14,14.70
2015,10,23,16,15,14.70
2015,10,23,16,16,14.70
2015,10,23,16,17,14.70
2015,10,23,16,18,14.70
2015,10,23,16,19,14.70
2015,10,23,16,20,14.70
2015,10,23,16,21,14.60
2015,10,23,16,22,14.60
2015,10,23,16,23,14.60
2015,10,23,16,24,14.50
2015,10,23,16,25,14.50
2015,10,23,16,26,14.50
2015,10,23,16,27,14.40
2015,10,23,16,28,14.40
2015,10,23,16,29,14.40
2015,10,23,16,30,14.40
2015,10,23,16,31,14.40
2015,10,23,16,32,14.30
2015,10,23,16,33,14.30
2015,10,23,16,34,14.30
2015,10,23,16,35,14.30
2015,10,23,16,36,14.20
2015,10,23,16,37,14.20
2015,10,23,16,38,14.20
2015,10,23,16,39,14.20
2015,10,23,16,40,14.10
2015,10,23,16,41,14.10
2015,10,23,16,42,14.10
2015,10,23,16,43,14.10
2015,10,23,16,44,14.10
2015,10,23,16,45,14.10
2015,10,23,16,46,14.10
2015,10,23,16,47,14.10
2015,10,23,16,48,14.10
2015,10,23,16,49,14.00
2015,10,23,16,50,14.00
2015,10,23,16,51,14.00
2015,10,23,16,52,14.00
2015,10,23,16,53,14.00
2015,10,23,16,54,13.90
2015,10,23,16,55,13.90
2015,10,23,16,56,13.90
2015,10,23,16,57,13.90
2015,10,23,16,58,13.90
2015,10,23,16,59,13.90
2015,10,23,17,00,13.80
2015,10,23,17,01,13.80
2015,10,23,17,02,13.80
2015,10,23,17,03,13.80
2015,10,23,17,04,13.80
2015,10,23,17,05,13.80
2015,10,23,17,06,13.80
2015,10,23,17,07,13.80
2015,10,23,17,08,13.80
2015,10,23,17,09,13.70
2015,10,23,17,10,13.70
2015,10,23,17,11,13.60
2015,10,23,17,12,13.60
2015,10,23,17,13,13.60
2015,10,23,17,14,13.50
2015,10,23,17,15,13.50
2015,10,23,17,16,13.40
2015,10,23,17,17,13.40
2015,10,23,17,18,13.40
2015,10,23,17,19,13.30
2015,10,23,17,20,13.30
2015,10,23,17,21,13.20
2015,10,23,17,22,13.20
2015,10,23,17,23,13.20
2015,10,23,17,24,13.10
2015,10,23,17,25,13.10
2015,10,23,17,26,13.10
2015,10,23,17,27,13.00
2015,10,23,17,28,13.00
2015,10,23,17,29,13.00
2015,10,23,17,30,12.90
2015,10,23,17,31,12.90
2015,10,23,17,32,12.90
2015,10,23,17,33,12.80
2015,10,23,17,34,12.80
2015,10,23,17,35,12.70
2015,10,23,17,36,12.70
2015,10,23,17,37,12.70
2015,10,23,17,38,12.60
2015,10,23,17,39,12.50
2015,10,23,17,40,12.50
2015,10,23,17,41,12.40
2015,10,23,17,42,12.30
2015,10,23,17,43,12.30
2015,10,23,17,44,12.20
2015,10,23,17,45,12.20
2015,10,23,17,46,12.10